Location: Unspecified
(45.3712°N, 0.6436°E)
Time: 01:23:02
(UTC+02:00)

ISS - Pass Details

Date: 16 July 2018
Orbit: 402 x 408 km, 51.6° (Epoch: 18 July)

Event Time Altitude Azimuth Distance (km) Brightness Sun altitude
Exits shadow 04:04:32 - 291° (WNW) 2,124 -0.3 -17.8°
Reaches altitude 10° 04:06:18 10° 302° (WNW) 1,470 -1.0 -17.6°
Maximum altitude 04:09:09 26° 2° (N) 842 -1.6 -17.4°
Drops below altitude 10° 04:12:00 10° 61° (ENE) 1,472 -0.1 -17.1°
Sets 04:14:18 0° 75° (ENE) 2,333 0.8 -16.9°
